Mayer, MN (55360)

10:46 PM CDT on May 05, 2015 (GMT -0500)
Mayer, MN | | Change Station
CLOSE
Current Station
Personal Weather Station
Location: Mayer, MN
Elevation: 977 ft
Nearby Weather Stations

Elev 977 ft 44.89 °N, 93.90 °W | Updated 5 seconds ago

Overcast
Overcast
59.2 °F
Feels Like 59.2 °F
N
9.2
Wind Variable Wind from West
Gusts 15.2 mph

Today
High -- | Low -- °F
--% Chance of Precip.
Yesterday
High -- | Low -- °F
Precip. -- in
5:59 AM 8:25 PM
Waning Gibbous, 96% visible
Pressure 30.11 in
Visibility 10.0 miles
Clouds Overcast 800 ft
Dew Point 50 °F
Humidity 72%
Rainfall 0.00 in
Snow Depth Not available.
UV 0 out of 12
Pollen 8.50 out of 12
Air Quality Not available.
Flu Activity Sporadic
METAR KGYL 060335Z AUTO 10008KT 10SM OVC008 14/12 A3011 RMK AO2 T01350123

More Conditions Fewer Conditions

Pressure 30.11 in
Visibility 10.0 miles
Clouds Overcast 800 ft
Dew Point 50 °F
Humidity 72%
Rainfall 0.00 in
Snow Depth Not available.
UV 0 out of 12
Pollen 8.50 out of 12
Air Quality Not available.
Flu Activity Sporadic
METAR KGYL 060335Z AUTO 10008KT 10SM OVC008 14/12 A3011 RMK AO2 T01350123

More Conditions Fewer Conditions

10-Day Weather Forecast

Almanac

Astronomy

May. 05, 2015 Rise Set
Actual Time
Civil Twilight
Nautical Twilight
Astronomical Twilight
Moon
Length of Visible Light
Length of Day
Tomorrow will be .
, % of the Moon is Illuminated

Today's Extremes

State Highs State Lows

Community

WunderPhotos

Upload Photos

1,819,064 photos uploaded!

WunderBlogs® & News

Nearby

Air Quality

  Air Quality AQ Index Pollutant
Not available.

Snow Depth

Station Depth Elevation

Earthquake Activity

City Distance Mag. Time & Date
Minimum magnitude displayed is 2.5.

Coastal Water Temperatures

Place Temperature

Stations

Nearby Weather Stations

Station Location Temp. Windchill Dew Point Humidity Wind Precip. Elev Updated Type